Weather in Sun Peaks

Canada     50°53′05″N   119°52′53″W
temp.,
°C
wind,
m/s
gust,
m/s
humid.,
%
clouds,
%
prec.,
mm/h
press.,
hPa
HPBL,
m
15 june, tue
tue1523:00+10e119697 5.5 101412
02:00+8s1196100 0.0 101313
05:00+8s1197100 0.1 101312
08:00+10ssw1293100 0.1 1014236
11:00+15s225099 0.1 10131055
14:00+19sw252886 0.0 10113004
17:00+20ssw2324100 0.0 10102947
20:00+14nw2256100 0.1 101462
16 june, wed
wed1623:00+8sw2291100 1.1 101734
02:00+6sw2293100 0.1 102124
05:00+5sw22968 0.1 102328
08:00+10sw228372 0.1 1023361
11:00+13wsw12745 1.9 1022910
14:00+16nw02609 2.3 10211206
17:00+18ne12425 2.9 1019893
20:00+15ene115786 0.0 101811
17 june, thu
thu1723:00+9se22735 0.0 102015
02:00+7s11795 0.0 102010
05:00+5sw008714 0.0 102210
08:00+13w015757 0.0 1021365
11:00+20wsw113584 0.0 10191579
14:00+22sw22265 0.0 10172512
17:00+22sw122690 0.0 10162355
20:00+17ese114894 0.0 101511
18 june, fri
fri1823:00+13se2255100 0.0 101618
02:00+11sse2263100 0.0 101619
05:00+10s2259100 0.0 101616
08:00+15sw12445 0.0 1015385
11:00+20sw1235100 0.0 10141517
14:00+22ssw2233100 0.0 10122279
17:00+22w123395 0.0 10101688
20:00+18ese1152100 0.0 101012
19 june, sat
sat1923:00+13wnw1162100 0.0 101212
02:00+12sw1170100 0.0 101311
05:00+11wsw1172100 0.0 101411
08:00+14nw226287 0.0 1015269
11:00+19nnw364093 0.0 10152052
14:00+19nnw463657 0.0 10152237
17:00+21nw353134 0.0 10142604
20:00+18nw36471 0.0 1015253